Weather History for KETH - January, 2013

Change the Weather History Date:

Tuesday, January 15, 2013

  Actual Average (K8D3) Record (K8D3)
Temperature  
Mean Temperature 14 °F 13 °F  
Max Temperature 28 °F 23 °F 47 °F (1990)
Min Temperature 1 °F 3 °F -31 °F (2009)
Degree Days  
Heating Degree Days 52 52  
Month to date heating degree days 780  
Since 1 July heating degree days 4119  
Cooling Degree Days 0 0  
Month to date cooling degree days 0  
Year to date cooling degree days 0  
Moisture  
Dew Point 8 °F    
Average Humidity 77    
Maximum Humidity 92    
Minimum Humidity 63    
Precipitation  
Precipitation 0.00 in 0.02 in 0.38 in (1980)
Month to date precipitation 0.24  
Year to date precipitation 0.24  
Snow  
Snow 0.00 in - - ()
Month to date snowfall  
Since 1 July snowfall  
Snow Depth -    
Sea Level Pressure  
Sea Level Pressure 30.00 in    
Wind  
Wind Speed 9 mph (South)    
Max Wind Speed 17 mph    
Max Gust Speed 22 mph    
Visibility 10 miles    
Events Snow    
T = Trace of Precipitation, MM = Missing Value Source: NWS Daily Summary

Daily Weather History Graph

Daily Weather History Graph

Search for Another Location

Airport or City:

Trip Planner

Search our weather history database for the weather conditions in past years. The results will help you decide how hot, cold, wet, or windy it might be!

Date:

Astronomy

Jan. 15, 2013 Rise Set
Actual Time 8:03 AM CST 5:08 PM CST
Civil Twilight 7:29 AM CST 5:41 PM CST
Nautical Twilight 6:53 AM CST 6:18 PM CST
Astronomical Twilight 6:17 AM CST 6:54 PM CST
Moon 9:53 AM CST (1/15) 10:17 PM CST (1/15)
Length of Visible Light 10h 12m
Length of Day
9h 05m
Waxing Crescent, 19% of the Moon is Illuminated
Jan 15
Waxing Crescent
Jan 18
First Quarter
Jan 26
Full
Feb 3
Last Quarter
Feb 10
New

Hourly Weather History & Observations

Time (CST) Temp. Windchill Dew Point Humidity Pressure Visibility Wind Dir Wind Speed Gust Speed Precip Events Conditions
12:15 AM 3.2 °F -9.1 °F -0.4 °F 85% 30.22 in 10.0 mi SSW 6.9 mph - N/A   Clear
12:34 AM 3.2 °F -7.8 °F -0.4 °F 85% 30.21 in 10.0 mi SSW 5.8 mph - N/A   Clear
12:54 AM 3.2 °F -7.8 °F -0.4 °F 85% 30.21 in 10.0 mi SSW 5.8 mph - N/A   Clear
1:34 AM 3.2 °F -9.1 °F -0.4 °F 85% 30.21 in 10.0 mi South 6.9 mph - N/A   Clear
1:54 AM 1.4 °F -11.3 °F -0.4 °F 92% 30.21 in 10.0 mi South 6.9 mph - N/A   Clear
2:15 AM 1.4 °F -9.9 °F -2.2 °F 85% 30.21 in 10.0 mi SSW 5.8 mph - N/A   Clear
2:35 AM 1.4 °F - -2.2 °F 85% 30.20 in 10.0 mi Calm Calm - N/A   Scattered Clouds
2:54 AM 1.4 °F -6.2 °F -2.2 °F 85% 30.20 in 10.0 mi South 3.5 mph - N/A   Overcast
3:14 AM 3.2 °F - -0.4 °F 85% 30.19 in 10.0 mi Calm Calm - N/A   Overcast
3:34 AM 3.2 °F -6.2 °F -0.4 °F 85% 30.18 in 10.0 mi SE 4.6 mph - N/A   Overcast
3:55 AM 3.2 °F -9.1 °F -0.4 °F 85% 30.17 in 10.0 mi SSE 6.9 mph - N/A   Overcast
4:14 AM 6.8 °F -3.5 °F 3.2 °F 85% 30.16 in 10.0 mi SE 5.8 mph - N/A   Overcast
4:34 AM 6.8 °F -2.0 °F 3.2 °F 85% 30.15 in 10.0 mi SSE 4.6 mph - N/A   Overcast
4:55 AM 8.6 °F -3.7 °F 3.2 °F 79% 30.14 in 10.0 mi SSE 8.1 mph - N/A   Overcast
5:14 AM 8.6 °F 0.1 °F 3.2 °F 79% 30.14 in 10.0 mi SE 4.6 mph - N/A   Overcast
5:34 AM 8.6 °F -5.5 °F 5.0 °F 85% 30.13 in 10.0 mi SSE 10.4 mph - N/A   Overcast
5:54 AM 8.6 °F -4.7 °F 5.0 °F 85% 30.13 in 10.0 mi SE 9.2 mph - N/A   Overcast
6:14 AM 8.6 °F -4.7 °F 5.0 °F 85% 30.12 in 10.0 mi SE 9.2 mph - N/A   Overcast
6:35 AM 8.6 °F -4.7 °F 5.0 °F 85% 30.11 in 10.0 mi SE 9.2 mph - N/A   Overcast
6:54 AM 8.6 °F -4.7 °F 5.0 °F 85% 30.11 in 10.0 mi SE 9.2 mph - N/A   Overcast
7:14 AM 8.6 °F -3.7 °F 5.0 °F 85% 30.11 in 10.0 mi SE 8.1 mph - N/A   Overcast
7:34 AM 8.6 °F -7.0 °F 5.0 °F 85% 30.10 in 10.0 mi SE 12.7 mph - N/A   Overcast
7:54 AM 8.6 °F -6.3 °F 5.0 °F 85% 30.10 in 10.0 mi SE 11.5 mph - N/A   Mostly Cloudy
8:15 AM 8.6 °F -7.0 °F 5.0 °F 85% 30.09 in 10.0 mi SE 12.7 mph - N/A   Scattered Clouds
8:35 AM 8.6 °F -4.7 °F 5.0 °F 85% 30.09 in 10.0 mi SSE 9.2 mph - N/A   Clear
8:55 AM 10.4 °F -3.3 °F 5.0 °F 79% 30.09 in 10.0 mi SSE 10.4 mph - N/A   Mostly Cloudy
9:14 AM 10.4 °F -3.3 °F 5.0 °F 79% 30.09 in 10.0 mi SSE 10.4 mph 16.1 mph N/A   Overcast
9:35 AM 10.4 °F -5.4 °F 5.0 °F 79% 30.09 in 10.0 mi SSE 13.8 mph - N/A   Mostly Cloudy
9:55 AM 12.2 °F -3.1 °F 5.0 °F 73% 30.08 in 10.0 mi South 13.8 mph - N/A   Scattered Clouds
10:15 AM 12.2 °F -1.8 °F 6.8 °F 79% 30.08 in 10.0 mi South 11.5 mph - N/A   Clear
10:35 AM 14.0 °F 0.5 °F 6.8 °F 73% 30.07 in 10.0 mi South 11.5 mph 17.3 mph N/A   Clear
10:55 AM 15.8 °F 2.1 °F 6.8 °F 68% 30.07 in 10.0 mi SSW 12.7 mph - N/A   Clear
11:14 AM 15.8 °F 3.4 °F 6.8 °F 68% 30.06 in 10.0 mi SSW 10.4 mph - N/A   Clear
11:34 AM 17.6 °F 5.7 °F 8.6 °F 68% 30.05 in 10.0 mi SSW 10.4 mph - N/A   Clear
11:54 AM 17.6 °F 5.0 °F 8.6 °F 68% 30.05 in 10.0 mi SSW 11.5 mph 16.1 mph N/A   Clear
12:15 PM 19.4 °F 6.6 °F 8.6 °F 63% 30.03 in 10.0 mi SSW 12.7 mph - N/A   Scattered Clouds
12:35 PM 19.4 °F 6.0 °F 8.6 °F 63% 30.02 in 10.0 mi SSW 13.8 mph - N/A   Scattered Clouds
12:55 PM 19.4 °F 7.9 °F 10.4 °F 68% 30.01 in 10.0 mi SSW 10.4 mph - N/A   Scattered Clouds
1:15 PM 19.4 °F 7.9 °F 10.4 °F 68% 29.99 in 10.0 mi South 10.4 mph - N/A   Clear
1:35 PM 21.2 °F 10.1 °F 10.4 °F 63% 29.98 in 10.0 mi South 10.4 mph - N/A   Clear
1:54 PM 21.2 °F 10.1 °F 10.4 °F 63% 29.97 in 10.0 mi South 10.4 mph - N/A   Clear
2:14 PM 21.2 °F 10.1 °F 10.4 °F 63% 29.96 in 10.0 mi South 10.4 mph - N/A   Clear
2:34 PM 21.2 °F 10.9 °F 12.2 °F 68% 29.96 in 10.0 mi South 9.2 mph - N/A   Clear
2:55 PM 23.0 °F 11.1 °F 12.2 °F 63% 29.96 in 10.0 mi SSW 12.7 mph - N/A   Clear
3:34 PM 23.0 °F 13.1 °F 12.2 °F 63% 29.96 in 10.0 mi South 9.2 mph - N/A   Clear
3:54 PM 21.2 °F 10.1 °F 12.2 °F 68% 29.96 in 10.0 mi SSW 10.4 mph - N/A   Clear
4:54 PM 19.4 °F 7.2 °F 10.4 °F 68% 29.94 in 10.0 mi South 11.5 mph - N/A   Clear
5:14 PM 19.4 °F 7.2 °F 10.4 °F 68% 29.93 in 10.0 mi South 11.5 mph - N/A   Clear
5:34 PM 17.6 °F 3.7 °F 10.4 °F 73% 29.92 in 10.0 mi South 13.8 mph - N/A   Clear
5:54 PM 17.6 °F 4.3 °F 8.6 °F 68% 29.91 in 10.0 mi South 12.7 mph - N/A   Clear
6:14 PM 17.6 °F 3.2 °F 8.6 °F 68% 29.90 in 10.0 mi South 15.0 mph - N/A   Clear
6:35 PM 17.6 °F 3.7 °F 8.6 °F 68% 29.88 in 10.0 mi South 13.8 mph 21.9 mph N/A   Clear
6:54 PM 17.6 °F 2.7 °F 10.4 °F 73% 29.86 in 10.0 mi South 16.1 mph 21.9 mph N/A   Clear
7:14 PM 17.6 °F 3.2 °F 10.4 °F 73% 29.87 in 10.0 mi South 15.0 mph - N/A   Clear
7:35 PM 17.6 °F 5.0 °F 10.4 °F 73% 29.85 in 10.0 mi South 11.5 mph 17.3 mph N/A   Clear
7:55 PM 17.6 °F 3.7 °F 10.4 °F 73% 29.82 in 10.0 mi South 13.8 mph 18.4 mph N/A   Clear
8:15 PM 17.6 °F 5.7 °F 10.4 °F 73% 29.82 in 10.0 mi South 10.4 mph - N/A   Scattered Clouds
8:35 PM 17.6 °F 5.0 °F 10.4 °F 73% 29.81 in 10.0 mi South 11.5 mph - N/A   Scattered Clouds
8:55 PM 17.6 °F 4.3 °F 10.4 °F 73% 29.79 in 10.0 mi South 12.7 mph - N/A   Mostly Cloudy
9:15 PM 19.4 °F 7.2 °F 12.2 °F 74% 29.78 in 10.0 mi South 11.5 mph - N/A   Overcast
9:35 PM 19.4 °F 5.5 °F 15.8 °F 86% 29.75 in 10.0 mi South 15.0 mph - N/A   Mostly Cloudy
9:55 PM 21.2 °F 7.8 °F 15.8 °F 80% 29.73 in 10.0 mi South 15.0 mph - N/A Snow Light Snow
10:14 PM 23.0 °F 9.2 °F 17.6 °F 80% 29.72 in 3.0 mi SSW 17.3 mph - N/A Snow Light Snow
10:35 PM 23.0 °F 9.6 °F 19.4 °F 86% 29.69 in 4.0 mi SSW 16.1 mph - N/A Snow Light Snow
10:55 PM 24.8 °F 11.9 °F 21.2 °F 86% 29.68 in 10.0 mi SSW 16.1 mph - N/A Snow Light Snow
11:15 PM 26.6 °F 15.2 °F 21.2 °F 80% 29.68 in 10.0 mi SSW 13.8 mph - N/A Snow Light Snow
11:34 PM 26.6 °F 15.7 °F 23.0 °F 86% 29.66 in 10.0 mi SSW 12.7 mph - N/A   Overcast
11:54 PM 28.4 °F 19.1 °F 24.8 °F 86% 29.66 in 10.0 mi SW 10.4 mph 18.4 mph N/A   Overcast